Weather History for PATK - July, 2012

Change the Weather History Date:

Tuesday, July 31, 2012

  Actual Average Record
Temperature  
Mean Temperature 56 °F -  
Max Temperature 66 °F 65 °F 84 °F (1976)
Min Temperature 46 °F 50 °F 39 °F (1969)
Degree Days  
Heating Degree Days 9    
Growing Degree Days 6 (Base 50)    
Moisture  
Dew Point 47 °F    
Average Humidity 70    
Maximum Humidity 97    
Minimum Humidity 35    
Precipitation  
Precipitation 0.00 in - - ()
Sea Level Pressure  
Sea Level Pressure 29.88 in    
Wind  
Wind Speed 1 mph (SSW)    
Max Wind Speed 7 mph    
Max Gust Speed -    
Visibility 10 miles    
Events      
Averages and records for this station are not official NWS values.
T = Trace of Precipitation, MM = Missing Value Source: NWS Daily Summary

Daily Weather History Graph

Daily Weather History Graph

Search for Another Location

Airport or City:

Trip Planner

Search our weather history database for the weather conditions in past years. The results will help you decide how hot, cold, wet, or windy it might be!

Date:

Astronomy

Jul. 31, 2012 Rise Set
Actual Time 5:23 AM AKDT 10:48 PM AKDT
Civil Twilight 4:09 AM AKDT 12:00 AM AKDT
Nautical Twilight 2:39 AM AKDT 1:34 AM AKDT
Astronomical Twilight Sun does not rise Sun does not rise
Moon 9:34 PM AKDT (7/31) 3:49 AM AKDT (7/31)
Length of Visible Light 19h 50m
Length of Day
17h 25m
Waxing Gibbous, 98% of the Moon is Illuminated
Jul 31
Waxing Gibbous
Aug 1
Full
Aug 9
Last Quarter
Aug 17
New
Aug 24
First Quarter

Hourly Weather History & Observations

Time (AKDT) Temp. Dew Point Humidity Pressure Visibility Wind Dir Wind Speed Gust Speed Precip Events Conditions
12:53 AM 52.0 °F 50.0 °F 93% 29.91 in 10.0 mi Calm Calm - N/A   Overcast
1:53 AM 50.0 °F 48.9 °F 96% 29.91 in 10.0 mi Calm Calm - N/A   Overcast
2:53 AM 50.0 °F 48.0 °F 93% 29.92 in 10.0 mi Calm Calm - N/A   Overcast
3:53 AM 48.9 °F 48.0 °F 97% 29.92 in 10.0 mi Calm Calm - N/A   Overcast
4:53 AM 48.9 °F 46.9 °F 93% 29.92 in 10.0 mi Calm Calm - N/A   Overcast
5:53 AM 46.9 °F 46.0 °F 97% 29.93 in 10.0 mi Calm Calm - N/A   Mostly Cloudy
6:53 AM 46.9 °F 46.0 °F 97% 29.93 in 10.0 mi Calm Calm - N/A   Scattered Clouds
7:53 AM 50.0 °F 46.9 °F 89% 29.93 in 10.0 mi Calm Calm - N/A   Mostly Cloudy
7:56 AM 51.8 °F 48.2 °F 88% 29.92 in 10.0 mi Calm Calm - N/A   Scattered Clouds
8:53 AM 55.0 °F 48.9 °F 80% 29.93 in 10.0 mi Calm Calm - N/A   Scattered Clouds
9:53 AM 55.9 °F 48.0 °F 75% 29.92 in 10.0 mi Calm Calm - N/A   Clear
10:53 AM 59.0 °F 46.9 °F 64% 29.91 in 10.0 mi Calm Calm - N/A   Scattered Clouds
11:53 AM 61.0 °F 43.0 °F 52% 29.90 in 10.0 mi Calm Calm - N/A   Clear
12:53 PM 62.1 °F 42.1 °F 48% 29.89 in 10.0 mi SSW 4.6 mph - N/A   Scattered Clouds
1:53 PM 63.0 °F 44.1 °F 50% 29.88 in 10.0 mi SSW 3.5 mph - N/A   Scattered Clouds
2:53 PM 66.0 °F 45.0 °F 47% 29.87 in 10.0 mi Calm Calm - N/A   Clear
3:53 PM 64.9 °F 44.1 °F 47% 29.86 in 10.0 mi Calm Calm - N/A   Scattered Clouds
4:53 PM 64.9 °F 44.1 °F 47% 29.85 in 10.0 mi Calm Calm - N/A   Overcast
5:53 PM 66.0 °F 45.0 °F 47% 29.83 in 10.0 mi Calm Calm - N/A   Mostly Cloudy
6:53 PM 64.9 °F 45.0 °F 48% 29.83 in 10.0 mi WNW 5.8 mph - N/A   Mostly Cloudy
7:53 PM 64.9 °F 46.0 °F 50% 29.82 in 10.0 mi Calm Calm - N/A   Overcast
8:53 PM 63.0 °F 51.1 °F 65% 29.81 in 10.0 mi Calm Calm - N/A   Mostly Cloudy
9:53 PM 61.0 °F 48.9 °F 64% 29.81 in 10.0 mi SSE 4.6 mph - 0.00 in   Mostly Cloudy
10:53 PM 59.0 °F 48.9 °F 69% 29.82 in 10.0 mi Variable 3.5 mph - N/A   Overcast
11:53 PM 59.0 °F 48.0 °F 67% 29.82 in 10.0 mi SSE 6.9 mph - N/A   Overcast